Hourly Weather Cayos Cochinos

Today, 12 June, Saturday

Time Temperature Precipitation Wind Pressure Humidity
00:00 +27°C° 0 mm 3 mps 756 mmHg 90%
01:00 +27°C° 0 mm 2 mps 756 mmHg 90%
02:00 +26°C° 0 mm 2 mps 756 mmHg 90%
03:00 +26°C° 0 mm 1 mps 756 mmHg 90%
04:00 +26°C° 0.4 mm 1 mps 756 mmHg 89%
05:00 +26°C° 0.4 mm 2 mps 756 mmHg 88%
06:00 +27°C° 0.4 mm 2 mps 756 mmHg 87%
07:00 +29°C° 0.3 mm 2 mps 757 mmHg 76%
08:00 +31°C° 0.3 mm 2 mps 757 mmHg 66%
09:00 +35°C° 0.3 mm 2 mps 758 mmHg 55%
10:00 +34°C° 0.2 mm 2 mps 757 mmHg 62%
11:00 +33°C° 0.2 mm 3 mps 757 mmHg 70%
12:00 +31°C° 0.2 mm 3 mps 757 mmHg 77%
13:00 +30°C° 0.4 mm 2 mps 757 mmHg 81%
14:00 +30°C° 0.4 mm 2 mps 756 mmHg 84%
15:00 +29°C° 0.4 mm 1 mps 756 mmHg 88%
16:00 +29°C° 0 mm 1 mps 756 mmHg 90%
17:00 +28°C° 0 mm 2 mps 756 mmHg 91%
18:00 +28°C° 0 mm 2 mps 756 mmHg 93%
19:00 +28°C° 0 mm 2 mps 756 mmHg 94%
20:00 +27°C° 0 mm 2 mps 756 mmHg 94%
21:00 +27°C° 0 mm 1 mps 757 mmHg 94%
22:00 +27°C° 0.2 mm 2 mps 757 mmHg 93%
23:00 +27°C° 0.2 mm 2 mps 757 mmHg 93%

Tomorrow, 13 June, Sunday

Time Temperature Precipitation Wind Pressure Humidity
00:00 +27°C° 0.2 mm 2 mps 757 mmHg 92%
01:00 +26°C° 0.4 mm 2 mps 756 mmHg 91%
02:00 +26°C° 0.4 mm 2 mps 756 mmHg 90%
03:00 +26°C° 0.4 mm 2 mps 756 mmHg 89%
04:00 +26°C° 0.2 mm 2 mps 756 mmHg 88%
05:00 +26°C° 0.2 mm 1 mps 757 mmHg 87%
06:00 +26°C° 0.2 mm 1 mps 757 mmHg 86%
07:00 +28°C° 0.2 mm 1 mps 757 mmHg 77%
08:00 +30°C° 0.2 mm 1 mps 757 mmHg 68%
09:00 +30°C° 0.2 mm 0 mps 758 mmHg 59%
10:00 +33°C° 0 mm 1 mps 757 mmHg 56%
11:00 +34°C° 0 mm 1 mps 757 mmHg 53%
12:00 +36°C° 0 mm 2 mps 757 mmHg 51%
13:00 +35°C° 0.1 mm 2 mps 756 mmHg 57%
14:00 +34°C° 0.1 mm 2 mps 756 mmHg 63%
15:00 +33°C° 0.1 mm 3 mps 756 mmHg 68%
16:00 +31°C° 0.4 mm 3 mps 756 mmHg 74%
17:00 +29°C° 0.4 mm 3 mps 756 mmHg 81%
18:00 +28°C° 0.4 mm 3 mps 756 mmHg 87%
19:00 +28°C° 0.2 mm 3 mps 756 mmHg 89%
20:00 +27°C° 0.2 mm 3 mps 756 mmHg 91%
21:00 +27°C° 0.2 mm 3 mps 757 mmHg 93%
22:00 +27°C° 0.2 mm 3 mps 756 mmHg 93%
23:00 +27°C° 0.2 mm 3 mps 756 mmHg 93%

Day after tomorrow, 14 June, Monday

Time Temperature Precipitation Wind Pressure Humidity
00:00 +27°C° 0.2 mm 3 mps 756 mmHg 93%
01:00 +26°C° 0.1 mm 3 mps 756 mmHg 93%
02:00 +26°C° 0.1 mm 2 mps 756 mmHg 93%
03:00 +26°C° 0.1 mm 2 mps 756 mmHg 93%
04:00 +26°C° 0 mm 2 mps 756 mmHg 92%
05:00 +26°C° 0 mm 1 mps 756 mmHg 91%
06:00 +26°C° 0 mm 1 mps 756 mmHg 89%
07:00 +29°C° 0.1 mm 1 mps 757 mmHg 77%
08:00 +32°C° 0.1 mm 1 mps 757 mmHg 65%
09:00 +34°C° 0.1 mm 1 mps 757 mmHg 52%
10:00 +35°C° 0 mm 2 mps 757 mmHg 54%
11:00 +35°C° 0 mm 2 mps 757 mmHg 56%
12:00 +35°C° 0 mm 3 mps 756 mmHg 58%
13:00 +34°C° 0.2 mm 3 mps 756 mmHg 65%
14:00 +31°C° 0.2 mm 3 mps 756 mmHg 73%
15:00 +30°C° 0.2 mm 3 mps 755 mmHg 80%
16:00 +29°C° 0.6 mm 4 mps 756 mmHg 82%
17:00 +29°C° 0.6 mm 6 mps 756 mmHg 84%
18:00 +28°C° 0.6 mm 7 mps 756 mmHg 86%
19:00 +27°C° 1.8 mm 6 mps 756 mmHg 90%
20:00 +27°C° 1.8 mm 6 mps 757 mmHg 93%
21:00 +26°C° 1.8 mm 5 mps 757 mmHg 97%
22:00 +26°C° 0.4 mm 5 mps 757 mmHg 97%
23:00 +26°C° 0.4 mm 4 mps 757 mmHg 97%

15 June, Tuesday

Time Temperature Precipitation Wind Pressure Humidity
00:00 +26°C° 0.4 mm 4 mps 756 mmHg 97%
01:00 +26°C° 0 mm 4 mps 756 mmHg 96%
02:00 +25°C° 0 mm 3 mps 756 mmHg 96%
03:00 +25°C° 0 mm 3 mps 756 mmHg 96%
04:00 +25°C° 0 mm 3 mps 756 mmHg 95%
05:00 +25°C° 0 mm 3 mps 756 mmHg 94%
06:00 +26°C° 0 mm 2 mps 756 mmHg 94%
07:00 +28°C° 0 mm 2 mps 757 mmHg 80%
08:00 +31°C° 0 mm 1 mps 757 mmHg 67%
09:00 +34°C° 0 mm 1 mps 757 mmHg 54%
10:00 +35°C° 0 mm 1 mps 757 mmHg 52%
11:00 +36°C° 0 mm 2 mps 756 mmHg 49%
12:00 +37°C° 0 mm 3 mps 756 mmHg 47%
13:00 +36°C° 0.3 mm 3 mps 756 mmHg 55%
14:00 +34°C° 0.3 mm 4 mps 755 mmHg 64%
15:00 +33°C° 0.3 mm 4 mps 755 mmHg 72%
16:00 +30°C° 0.4 mm 4 mps 755 mmHg 78%
17:00 +29°C° 0.4 mm 5 mps 755 mmHg 84%
18:00 +28°C° 0.4 mm 5 mps 755 mmHg 90%
19:00 +28°C° 0.6 mm 5 mps 755 mmHg 92%
20:00 +27°C° 0.6 mm 6 mps 756 mmHg 94%
21:00 +27°C° 0.6 mm 6 mps 756 mmHg 96%
22:00 +26°C° 0 mm 6 mps 756 mmHg 96%
23:00 +26°C° 0 mm 5 mps 756 mmHg 96%

16 June, Wednesday

Time Temperature Precipitation Wind Pressure Humidity
00:00 +26°C° 0 mm 5 mps 756 mmHg 95%
01:00 +26°C° 0 mm 5 mps 755 mmHg 95%
02:00 +26°C° 0 mm 4 mps 755 mmHg 94%
03:00 +26°C° 0 mm 4 mps 755 mmHg 94%
04:00 +26°C° 0 mm 4 mps 755 mmHg 93%
05:00 +26°C° 0 mm 4 mps 755 mmHg 92%
06:00 +26°C° 0 mm 3 mps 756 mmHg 91%
07:00 +28°C° 0 mm 3 mps 756 mmHg 79%
08:00 +31°C° 0 mm 2 mps 756 mmHg 67%
09:00 +34°C° 0 mm 2 mps 756 mmHg 55%
10:00 +35°C° 0 mm 2 mps 756 mmHg 51%
11:00 +37°C° 0 mm 2 mps 755 mmHg 47%
12:00 +38°C° 0 mm 2 mps 755 mmHg 42%
13:00 +36°C° 0.1 mm 2 mps 755 mmHg 56%
14:00 +32°C° 0.1 mm 2 mps 754 mmHg 69%
15:00 +29°C° 0.1 mm 2 mps 754 mmHg 82%
16:00 +29°C° 0.4 mm 2 mps 754 mmHg 84%
17:00 +29°C° 0.4 mm 2 mps 754 mmHg 85%
18:00 +28°C° 0.4 mm 2 mps 754 mmHg 87%
19:00 +28°C° 0.5 mm 2 mps 755 mmHg 89%
20:00 +27°C° 0.5 mm 2 mps 755 mmHg 92%
21:00 +27°C° 0.5 mm 2 mps 755 mmHg 95%
22:00 +27°C° 0 mm 2 mps 755 mmHg 94%
23:00 +27°C° 0 mm 2 mps 755 mmHg 93%

17 June, Thursday

Time Temperature Precipitation Wind Pressure Humidity
00:00 +27°C° 0 mm 1 mps 755 mmHg 92%
01:00 +26°C° 0 mm 1 mps 755 mmHg 93%
02:00 +26°C° 0 mm 1 mps 755 mmHg 94%
03:00 +26°C° 0 mm 1 mps 754 mmHg 95%
04:00 +26°C° 0 mm 1 mps 754 mmHg 94%
05:00 +26°C° 0 mm 1 mps 754 mmHg 94%
06:00 +26°C° 0 mm 1 mps 755 mmHg 94%
07:00 +26°C° 0 mm 1 mps 755 mmHg 92%
08:00 +27°C° 0 mm 1 mps 755 mmHg 89%
09:00 +27°C° 0 mm 1 mps 755 mmHg 87%
10:00 +30°C° 0 mm 1 mps 755 mmHg 74%
11:00 +33°C° 0 mm 1 mps 755 mmHg 60%
12:00 +36°C° 0 mm 1 mps 754 mmHg 47%
13:00 +34°C° 0.1 mm 1 mps 754 mmHg 56%
14:00 +32°C° 0.1 mm 1 mps 754 mmHg 65%
15:00 +30°C° 0.1 mm 1 mps 753 mmHg 74%
16:00 +30°C° 0 mm 1 mps 754 mmHg 78%
17:00 +29°C° 0 mm 1 mps 754 mmHg 81%
18:00 +29°C° 0 mm 1 mps 754 mmHg 84%
19:00 +28°C° 0 mm 1 mps 754 mmHg 85%
20:00 +28°C° 0 mm 2 mps 754 mmHg 87%
21:00 +27°C° 0 mm 2 mps 754 mmHg 88%
22:00 +27°C° 0 mm 2 mps 754 mmHg 86%
23:00 +27°C° 0 mm 2 mps 754 mmHg 84%
Show more

We Need Your Consent

Meteoprog and our Service Providers may store and access personal data such as cookies, device identifiers or other similar technologies on your device and process such data to personalise content and ads, as well as provide social media features and to analyse the traffic.

  • Store and/or access information on your device

    Cookies, device identifiers or other information can be stored or accessed on your device for the purposes indicated above.

  • Personalised ads and content, ad and content measurement, audience insights, and products development

    Ads and content can be personalised based on a profile. More data can be added to better personalise ads and content. Ad and content performance can be measured. Insights about the audience who saw the ads and content can be derived. Such data can be used to develop or improve user’s experience, systems and software.

By clicking ‘I Agree’ you will allow the use of indicated cookies, device identifiers, web beacons or other similar technologies. Your settings can be changed in the browser on your device.

For certain purposes, legitimate interests may be relied on, rather than consent. You can read more about this in our Privacy and Cookie Policy.